[[{"header":{"parameterUnit":"m.s-1","parameterCategory":1,"la1":30.2991,"la2":30.254,"lo1":-89.0895,"lo2":-89.0444,"dy":0.0017,"dx":0.0017,"nx":28,"ny":28,"refTime":"2025-04-25T03:00:00:Z","depth":0,"parameterNumber":2,"parameterNumberName":"U-component_of_WINDS"},"data":[0,0,0,0,0,0,0,0,0,0,0,0,0,0,0,0,0,0,0,0,0,0,0,0,0,0,0,0,0,0,0,0,0,0,0,0,0,0,0,0,0,0,0,0,0,0,0,0,0,0,0,0,0,0,0,0,0,0,0.0575,0.0575,0,0.0585,0.0585,0.0585,0.0591,0.0591,0.0591,0.0591,0.0601,0.0601,0.0601,0,0,0,0,0,0,0,0,0,0,0,0,0,0.0559,0.056,0.0575,0.0575,0.0575,0.0585,0.0585,0.0585,0.0591,0.0591,0.0591,0.0591,0.06,0.0601,0.0601,0,0,0,0,0,0,0,0,0,0,0,0,0,0.0567,0.056,0.0575,0.0579,0.0579,0.0585,0.0585,0.0585,0.0591,0.0591,0.0591,0.0591,0.06,0.0601,0.0601,0.0602,0,0,0.0602,0.0602,0,0,0,0,0,0,0,0,0.0567,0.0568,0.0578,0.0579,0.0579,0.0587,0.0583,0.0591,0.0591,0.0587,0.0591,0.0591,0.0596,0.0597,0.0598,0.0603,0.0603,0.0602,0.0602,0.0603,0.0603,0,0,0,0,0,0,0,0.0566,0.0568,0.0579,0.0578,0.0579,0.058,0.0581,0.0585,0.0591,0.0587,0.0587,0.0588,0.0596,0.0598,0.0599,0.0603,0.0602,0.0602,0.0603,0.0603,0.0609,0.0609,0,0,0,0,0,0,0.0565,0.0567,0.0578,0.0579,0.0573,0.058,0.0582,0.0584,0.0591,0.0592,0.0588,0.0589,0.0597,0.0598,0.0599,0.0601,0.0603,0.0603,0.0603,0.0609,0.0609,0.0609,0,0,0,0,0,0,0.0565,0.0566,0.0578,0.0573,0.0575,0.0581,0.0583,0.0584,0.0586,0.0592,0.0593,0.0589,0.0597,0.0598,0.0601,0.0601,0.0603,0.0603,0.0609,0.0609,0.0609,0.0604,0,0,0,0,0,0,0.0564,0.0566,0.0567,0.0573,0.0575,0.0581,0.0583,0.0585,0.0587,0.0587,0.0593,0.0594,0.0598,0.0601,0.0602,0.0602,0.0604,0.0609,0.0609,0.0609,0.0605,0.0604,0.0604,0,0,0,0,0,0.0564,0.0565,0.0567,0.0568,0.0576,0.0581,0.0582,0.0586,0.0587,0.0588,0.0591,0.0594,0.0601,0.0601,0.0602,0.0602,0.0609,0.0609,0.0609,0.0605,0.0604,0.0604,0,0,0,0,0,0,0.0559,0.0566,0.0568,0.0572,0.0575,0.0581,0.0583,0.0585,0.0589,0.0589,0.0594,0.0595,0.0597,0.06,0.06,0.0604,0.0605,0.0606,0.0602,0.0601,0.0601,0.06,0.0604,0,0,0,0,0,0.0558,0.0561,0.0567,0.057,0.0571,0.0577,0.0579,0.0582,0.0586,0.0587,0.0591,0.0595,0.0598,0.06,0.0603,0.0605,0.0606,0.0606,0.0605,0.0605,0.0605,0.0606,0.0605,0.0609,0.0609,0.0609,0,0,0.0556,0.0561,0.0563,0.0569,0.0572,0.0575,0.0578,0.0581,0.0583,0.0588,0.0591,0.0594,0.0598,0.06,0.0602,0.0603,0.0604,0.0605,0.0604,0.0605,0.0606,0.0605,0.0605,0.0609,0.0609,0.0609,0,0,0.0555,0.0559,0.0561,0.0564,0.0569,0.0573,0.0573,0.0579,0.0581,0.0584,0.0588,0.059,0.0595,0.0598,0.06,0.0599,0.0602,0.06,0.0598,0.0599,0.0599,0.0599,0.0598,0.0598,0.06,0.06,0.06,0,0.0553,0.0557,0.0562,0.0565,0.0567,0.0571,0.0573,0.0576,0.0582,0.0583,0.0584,0.0591,0.0594,0.0597,0.0597,0.0599,0.0599,0.06,0.0598,0.0598,0.0598,0.0598,0.0597,0.06,0.06,0.06,0.06,0,0.0554,0.0557,0.0558,0.0563,0.0566,0.0568,0.0573,0.0575,0.0577,0.058,0.0583,0.0587,0.0591,0.0592,0.0595,0.0595,0.0596,0.0598,0.0599,0.0597,0.0597,0.0597,0.06,0.06,0.06,0.06,0,0,0.055,0.0558,0.0558,0.056,0.0566,0.0568,0.057,0.0574,0.0576,0.0579,0.0581,0.0585,0.0587,0.0589,0.0592,0.0593,0.0591,0.0594,0.0594,0.0593,0.0592,0.059,0.059,0.0593,0.0593,0.0593,0.0591,0,0.0549,0.0554,0.0558,0.0561,0.0563,0.0567,0.0569,0.0573,0.0576,0.0578,0.0581,0.0584,0.0586,0.0587,0.0588,0.0591,0.0591,0.0591,0.0594,0.0594,0.0593,0.059,0.0588,0.0587,0.0591,0.0591,0.0591,0,0.0549,0.0553,0.0556,0.0561,0.0562,0.0564,0.0567,0.057,0.0573,0.0575,0.0578,0.0581,0.0583,0.0584,0.0587,0.0588,0.0589,0.0591,0.0591,0.0591,0.0593,0.059,0.0586,0.0586,0.0591,0.0591,0.0591,0,0.0546,0.0551,0.0554,0.0556,0.0561,0.0562,0.0565,0.0569,0.0571,0.0574,0.0575,0.0578,0.058,0.0582,0.0585,0.0586,0.0588,0.059,0.0589,0.0589,0.0589,0.0589,0.0586,0.059,0.059,0.059,0.059,0,0.0545,0.0547,0.0552,0.0554,0.0556,0.056,0.0562,0.0564,0.0568,0.0569,0.0573,0.0575,0.0579,0.0581,0.0584,0.0586,0.0586,0.0588,0.0588,0.0587,0.0587,0.0588,0.0588,0.059,0.059,0.059,0.059,0,0.0541,0.0545,0.0548,0.0553,0.0555,0.0556,0.056,0.0561,0.0564,0.0566,0.0567,0.0572,0.0574,0.0578,0.0581,0.0583,0.0584,0.0586,0.0583,0.0584,0.0583,0.0583,0.058,0.0579,0.0584,0.0584,0.0584,0,0.054,0.0542,0.0547,0.0548,0.0551,0.0553,0.0555,0.0559,0.0561,0.0565,0.0566,0.0569,0.0571,0.0575,0.0578,0.0581,0.0582,0.0581,0.0582,0.0581,0.0582,0.0581,0.0581,0.058,0.058,0.058,0.058,0,0.0538,0.054,0.0543,0.0546,0.0548,0.0551,0.0554,0.0554,0.0559,0.0561,0.0563,0.0565,0.0569,0.0571,0.0574,0.0577,0.0579,0.058,0.058,0.0578,0.0577,0.0577,0.0582,0.058,0.058,0.058,0.058,0.058,0.0536,0.0537,0.0541,0.0543,0.0546,0.0548,0.055,0.0553,0.0555,0.0558,0.056,0.0563,0.0566,0.057,0.0572,0.0574,0.0575,0.0575,0.0575,0.0575,0.0574,0.0577,0.0575,0.0575,0.0575,0.0575,0.0575,0,0.0534,0.0536,0.0538,0.0542,0.0544,0.0546,0.0549,0.0551,0.0553,0.0556,0.0558,0.0561,0.0563,0.0566,0.0569,0.057,0.0571,0.057,0.057,0.057,0.0573,0.0573,0.0569,0.0569,0.0569,0.0569,0.0569,0.0569,0.0533,0.0535,0.0537,0.054,0.0542,0.0545,0.0546,0.0548,0.0551,0.0553,0.0555,0.0558,0.056,0.0563,0.0565,0.0566,0.0567,0.0566,0.0567,0.057,0.057,0.0571,0.057,0.0566,0.0566,0.0564,0.0564,0.0564]},{"header":{"parameterUnit":"m.s-1","parameterCategory":1,"la1":30.2991,"la2":30.254,"lo1":-89.0895,"lo2":-89.0444,"dy":0.0017,"dx":0.0017,"nx":28,"ny":28,"refTime":"2025-04-25T03:00:00:Z","depth":0,"parameterNumber":3,"parameterNumberName":"V-component_of_WINDS"},"data":[0,0,0,0,0,0,0,0,0,0,0,0,0,0,0,0,0,0,0,0,0,0,0,0,0,0,0,0,0,0,0,0,0,0,0,0,0,0,0,0,0,0,0,0,0,0,0,0,0,0,0,0,0,0,0,0,0,0,2.2842,2.2842,0,2.2845,2.2845,2.2845,2.281,2.2809,2.2808,2.2807,2.281,2.2811,2.2812,0,0,0,0,0,0,0,0,0,0,0,0,0,2.2805,2.2806,2.2842,2.2842,2.2842,2.2845,2.2845,2.2845,2.281,2.2809,2.2808,2.2807,2.281,2.2811,2.2812,0,0,0,0,0,0,0,0,0,0,0,0,0,2.2816,2.2806,2.2842,2.2825,2.2823,2.2845,2.2845,2.2845,2.2811,2.2809,2.2808,2.2806,2.2809,2.2811,2.2812,2.2849,0,0,2.2816,2.2817,0,0,0,0,0,0,0,0,2.2815,2.2817,2.2827,2.2826,2.2824,2.2826,2.2833,2.2846,2.2811,2.2815,2.2807,2.2806,2.2816,2.2817,2.2821,2.2849,2.2849,2.2816,2.2817,2.2818,2.2818,0,0,0,0,0,0,0,2.2815,2.2817,2.2843,2.2827,2.2826,2.2817,2.2817,2.2835,2.2824,2.2815,2.2812,2.2813,2.2815,2.2819,2.282,2.2849,2.2816,2.2818,2.2819,2.2819,2.2909,2.291,0,0,0,0,0,0,2.2816,2.2817,2.2843,2.2843,2.2816,2.2819,2.2819,2.2827,2.2823,2.2822,2.2815,2.2812,2.2818,2.2819,2.282,2.2864,2.2818,2.2819,2.282,2.2907,2.2909,2.2911,0,0,0,0,0,0,2.2816,2.2819,2.2842,2.2829,2.2831,2.2821,2.283,2.2827,2.2832,2.2823,2.2821,2.2821,2.2817,2.2818,2.2842,2.2863,2.282,2.2821,2.2905,2.2908,2.291,2.295,0,0,0,0,0,0,2.2815,2.2819,2.2833,2.283,2.2832,2.2865,2.2831,2.2829,2.2834,2.2831,2.2829,2.2827,2.2816,2.284,2.2844,2.2864,2.2822,2.2903,2.2906,2.2909,2.2947,2.2954,2.296,0,0,0,0,0,2.2814,2.2844,2.2834,2.2837,2.285,2.2866,2.2867,2.2854,2.2836,2.285,2.2845,2.2827,2.286,2.2843,2.2847,2.2868,2.2902,2.2906,2.2909,2.2944,2.2953,2.2959,0,0,0,0,0,0,2.285,2.2843,2.2832,2.2863,2.2865,2.286,2.2877,2.2863,2.2871,2.2867,2.285,2.2849,2.2876,2.2874,2.2855,2.2904,2.2878,2.2882,2.2904,2.2912,2.2918,2.2917,2.2823,0,0,0,0,0,2.2862,2.2876,2.2869,2.2897,2.2899,2.2888,2.2894,2.2884,2.2886,2.2887,2.2883,2.2885,2.2896,2.2904,2.2913,2.2947,2.2946,2.2963,2.2969,2.2975,2.2978,2.2996,2.3004,2.2922,2.2922,2.2922,0,0,2.2886,2.2884,2.2894,2.2904,2.2905,2.2919,2.2889,2.2906,2.2916,2.2889,2.2911,2.2909,2.291,2.2939,2.2952,2.2938,2.3001,2.2979,2.2983,2.2984,2.3,2.3008,2.3015,2.2924,2.2924,2.2923,0,0,2.2937,2.2937,2.296,2.2962,2.2963,2.2956,2.2962,2.2959,2.2956,2.2979,2.2958,2.2971,2.299,2.2992,2.2995,2.3048,2.3032,2.3052,2.3084,2.3101,2.3107,2.3113,2.3132,2.3138,2.3055,2.3056,2.3056,0,2.2967,2.2988,2.2974,2.2992,2.2997,2.2973,2.2996,2.2998,2.3003,2.3007,2.2992,2.3016,2.3016,2.3044,2.3057,2.3061,2.3067,2.3052,2.3108,2.3113,2.3118,2.3136,2.3143,2.3058,2.3058,2.3057,2.3057,0,2.3025,2.304,2.3058,2.3064,2.3071,2.3091,2.308,2.3089,2.3078,2.3072,2.3095,2.3093,2.3102,2.3108,2.3098,2.3136,2.3128,2.3111,2.3084,2.3129,2.3145,2.3151,2.3061,2.306,2.306,2.3059,0,0,2.3099,2.3096,2.3103,2.3105,2.3106,2.3117,2.3136,2.3145,2.3153,2.3157,2.3173,2.319,2.3175,2.3179,2.3168,2.3183,2.3225,2.3164,2.3164,2.3175,2.3267,2.3279,2.3287,2.3214,2.3215,2.3216,2.3266,0,2.3149,2.3182,2.317,2.3204,2.3217,2.3195,2.3212,2.3214,2.3209,2.322,2.3215,2.3227,2.3206,2.3208,2.3222,2.3217,2.3243,2.3213,2.3228,2.3229,2.3229,2.3296,2.3309,2.3356,2.3273,2.3274,2.3274,0,2.3211,2.3218,2.3254,2.3252,2.3257,2.3273,2.328,2.3291,2.3292,2.3288,2.3292,2.3278,2.3297,2.3271,2.3297,2.3277,2.3282,2.3281,2.3282,2.3283,2.3254,2.3298,2.3371,2.3378,2.3284,2.3283,2.3283,0,2.3262,2.328,2.3304,2.3306,2.3304,2.3316,2.3316,2.3316,2.3322,2.3328,2.3332,2.3341,2.3345,2.3352,2.3341,2.3323,2.3368,2.3341,2.3364,2.3365,2.3375,2.3374,2.3449,2.3379,2.3379,2.3378,2.3378,0,2.3319,2.3341,2.3326,2.3341,2.3365,2.3351,2.3376,2.3373,2.3373,2.3387,2.3368,2.3381,2.3365,2.3377,2.3368,2.339,2.3393,2.3389,2.3387,2.3391,2.3391,2.3394,2.3391,2.338,2.338,2.338,2.3379,0,2.3379,2.337,2.3394,2.3391,2.339,2.3409,2.3405,2.3419,2.3413,2.343,2.3433,2.3424,2.3436,2.3426,2.3438,2.3432,2.3461,2.3454,2.3461,2.3459,2.3483,2.3481,2.3563,2.3572,2.3496,2.3496,2.3497,0,2.3416,2.3433,2.3431,2.3439,2.344,2.3453,2.3459,2.3446,2.3453,2.3456,2.3469,2.348,2.3488,2.3509,2.3503,2.3512,2.3505,2.3533,2.3506,2.351,2.3505,2.3504,2.3506,2.3538,2.3539,2.354,2.3541,0,2.3483,2.3477,2.3487,2.3496,2.3504,2.351,2.3515,2.3522,2.3508,2.3517,2.353,2.3536,2.3549,2.356,2.3567,2.3566,2.3551,2.3549,2.3555,2.3559,2.3563,2.3561,2.3476,2.3547,2.3547,2.3546,2.3546,2.3546,2.3532,2.3546,2.3547,2.3559,2.3561,2.3566,2.3578,2.3574,2.3584,2.3593,2.3585,2.36,2.3601,2.3609,2.3611,2.3622,2.3611,2.3619,2.3621,2.3624,2.3627,2.3561,2.3624,2.3623,2.3623,2.3623,2.3623,0,2.3598,2.3597,2.3608,2.3615,2.3625,2.361,2.3614,2.3623,2.3637,2.3639,2.3647,2.3662,2.3673,2.3668,2.3677,2.3687,2.3681,2.369,2.3689,2.3689,2.3637,2.3631,2.3696,2.3696,2.3696,2.3696,2.3696,2.3696,2.3633,2.3656,2.3651,2.3674,2.3673,2.3689,2.3692,2.3696,2.3698,2.3716,2.3724,2.3721,2.3721,2.373,2.3739,2.3737,2.3741,2.3754,2.3749,2.37,2.3693,2.3686,2.3681,2.3755,2.3755,2.3801,2.3801,2.3802]}]]